Weather History for KPUC - June, 2013

Change the Weather History Date:

Friday, June 14, 2013

  Actual Average Record
Temperature  
Mean Temperature 73 °F -  
Max Temperature 87 °F 79 °F 97 °F (1974)
Min Temperature 59 °F 48 °F 28 °F (1976)
Cooling Degree Days 8    
Growing Degree Days 23 (Base 50)    
Moisture  
Dew Point 15 °F    
Average Humidity 14    
Maximum Humidity 32    
Minimum Humidity 4    
Precipitation  
Precipitation 0.00 in - - ()
Sea Level Pressure  
Sea Level Pressure 29.79 in    
Wind  
Wind Speed 11 mph (WNW)    
Max Wind Speed 18 mph    
Max Gust Speed 28 mph    
Visibility 10 miles    
Events      
Averages and records for this station are not official NWS values.
T = Trace of Precipitation, MM = Missing Value Source: NWS Daily Summary

Daily Weather History Graph

Daily Weather History Graph

Search for Another Location

Airport or City:

Trip Planner

Search our weather history database for the weather conditions in past years. The results will help you decide how hot, cold, wet, or windy it might be!

Date:

Astronomy

Jun. 14, 2013 Rise Set
Actual Time 5:54 AM MDT 8:52 PM MDT
Civil Twilight 5:22 AM MDT 9:24 PM MDT
Nautical Twilight 4:41 AM MDT 10:05 PM MDT
Astronomical Twilight 3:53 AM MDT 10:53 PM MDT
Moon 11:32 AM MDT (6/14) 12:00 AM MDT (6/14)
Length of Visible Light 16h 02m
Length of Day
14h 57m
Waxing Crescent, 31% of the Moon is Illuminated
Jun 14
Waxing Crescent
Jun 16
First Quarter
Jun 23
Full
Jun 29
Last Quarter
Jul 8
New

Hourly Weather History & Observations

Time (MDT) Temp. Dew Point Humidity Pressure Visibility Wind Dir Wind Speed Gust Speed Precip Events Conditions
12:53 AM 68.0 °F 27.0 °F 21% 29.70 in 10.0 mi NW 15.0 mph 21.9 mph N/A   Clear
1:53 AM 64.0 °F 30.0 °F 28% 29.73 in 10.0 mi NW 11.5 mph - N/A   Clear
2:53 AM 61.0 °F 28.9 °F 30% 29.76 in 10.0 mi WNW 5.8 mph - N/A   Clear
3:53 AM 59.0 °F 28.9 °F 32% 29.78 in 9.0 mi West 5.8 mph - N/A   Clear
4:53 AM 61.0 °F 24.1 °F 24% 29.81 in 10.0 mi NW 8.1 mph - N/A   Clear
5:53 AM 59.0 °F 24.1 °F 26% 29.83 in 10.0 mi NW 12.7 mph 19.6 mph N/A   Clear
6:53 AM 59.0 °F 27.0 °F 29% 29.86 in 10.0 mi NW 16.1 mph - N/A   Clear
7:53 AM 62.1 °F 25.0 °F 24% 29.87 in 10.0 mi WNW 10.4 mph 19.6 mph N/A   Clear
8:53 AM 69.1 °F 16.0 °F 13% 29.86 in 10.0 mi WNW 11.5 mph - N/A   Clear
9:53 AM 73.0 °F -0.9 °F 5% 29.85 in 10.0 mi WNW 12.7 mph 21.9 mph N/A   Clear
10:53 AM 75.9 °F 1.0 °F 5% 29.84 in 10.0 mi WNW 9.2 mph - N/A   Clear
11:53 AM 78.1 °F 1.0 °F 5% 29.82 in 10.0 mi South 4.6 mph - N/A   Clear
12:53 PM 81.0 °F 3.9 °F 5% 29.80 in 10.0 mi WSW 8.1 mph - N/A   Clear
1:53 PM 82.9 °F 3.9 °F 5% 29.80 in 10.0 mi SSW 11.5 mph 20.7 mph N/A   Clear
2:53 PM 82.0 °F 5.0 °F 5% 29.80 in 10.0 mi Variable 4.6 mph - N/A   Clear
3:53 PM 84.9 °F 6.1 °F 5% 29.78 in 10.0 mi NNE 4.6 mph - N/A   Clear
4:53 PM 87.1 °F 1.9 °F 4% 29.74 in 10.0 mi NW 11.5 mph 23.0 mph N/A   Clear
5:53 PM 84.9 °F 7.0 °F 5% 29.75 in 10.0 mi WNW 10.4 mph 24.2 mph N/A   Clear
6:53 PM 82.0 °F 15.1 °F 8% 29.76 in 10.0 mi WNW 18.4 mph 25.3 mph N/A   Clear
7:53 PM 79.0 °F 12.9 °F 8% 29.76 in 10.0 mi WNW 10.4 mph 25.3 mph N/A   Clear
8:53 PM 73.9 °F 14.0 °F 10% 29.77 in 10.0 mi NW 17.3 mph 27.6 mph N/A   Clear
9:53 PM 70.0 °F 19.9 °F 15% 29.79 in 10.0 mi NW 10.4 mph - N/A   Clear
10:53 PM 70.0 °F 15.1 °F 12% 29.79 in 10.0 mi NW 10.4 mph 19.6 mph N/A   Clear
11:53 PM 69.1 °F 14.0 °F 12% 29.78 in 10.0 mi Calm Calm - N/A   Clear